Location: Earls Croome
(52.0667°N, 2.2000°W)
Time: 05:59:29
(UTC+00:00)

Cosmos 2237 Rocket - Pass Details

Date: 17 November 2019
Orbit: 834 x 850 km, 71.0° (Epoch: 10 December)

Event Time Altitude Azimuth Distance (km) Brightness Sun altitude
Exits shadow 06:32:41 - 331° (NNW) 3,216 4.8 -9.1°
Reaches altitude 10° 06:34:42 10° 337° (NNW) 2,486 4.2 -8.8°
Maximum altitude 06:40:09 45° 49° (NE) 1,152 3.2 -8.0°
Drops below altitude 10° 06:45:34 10° 122° (ESE) 2,464 6.3 -7.2°
Sets 06:48:07 0° 128° (SE) 3,393 7.1 -6.8°
